ACH2055 FKKD-FIMP

Flight info

Callsign ACH2055
Flight time N/A
Altitude 31000
Route NLY UL434 KGI UB531 MV UW305 ITGOP UA401 DV UG661 NIBIS
Aircraft B738/M-SDE2E3FGHIRWXY/LB1

Departure

Time 2026-04-17 11:10
Airport Douala International Airport (FKKD)

Arrival

Time N/A
Airport Sir Seewoosagur Ramgoolam International Airport (FIMP)
Time Latitude Longitude Altitude Speed Heading
2026-04-17 10:59 4.01129 9.71681 41 ft 0 kts 128°
2026-04-17 11:00 4.01137 9.71670 41 ft 4 kts 128°
2026-04-17 11:00 4.01150 9.71651 38 ft 1 kts 163°
2026-04-17 11:00 4.01162 9.71667 37 ft 4 kts 248°
2026-04-17 11:00 4.01169 9.71683 41 ft 0 kts 248°
2026-04-17 11:02 4.01166 9.71676 41 ft 4 kts 248°
2026-04-17 11:02 4.01136 9.71630 40 ft 10 kts 219°
2026-04-17 11:02 4.01076 9.71613 41 ft 9 kts 163°
2026-04-17 11:03 4.01032 9.71659 41 ft 10 kts 114°
2026-04-17 11:03 4.00996 9.71725 40 ft 11 kts 142°
2026-04-17 11:03 4.00927 9.71715 39 ft 11 kts 206°
2026-04-17 11:03 4.00862 9.71682 41 ft 10 kts 207°
2026-04-17 11:04 4.00797 9.71659 42 ft 10 kts 184°
2026-04-17 11:04 4.00743 9.71697 41 ft 10 kts 121°
2026-04-17 11:04 4.00709 9.71763 38 ft 11 kts 116°
2026-04-17 11:04 4.00677 9.71827 39 ft 10 kts 117°
2026-04-17 11:05 4.00645 9.71889 37 ft 10 kts 117°
2026-04-17 11:05 4.00611 9.71955 38 ft 13 kts 117°
2026-04-17 11:05 4.00562 9.72052 37 ft 17 kts 116°
2026-04-17 11:05 4.00509 9.72161 35 ft 17 kts 117°
2026-04-17 11:06 4.00455 9.72264 33 ft 16 kts 118°
2026-04-17 11:06 4.00408 9.72364 33 ft 16 kts 112°
2026-04-17 11:06 4.00357 9.72459 32 ft 15 kts 117°
2026-04-17 11:06 4.00312 9.72552 30 ft 14 kts 116°
2026-04-17 11:07 4.00268 9.72639 32 ft 14 kts 116°
2026-04-17 11:07 4.00226 9.72724 31 ft 13 kts 117°
2026-04-17 11:07 4.00184 9.72804 31 ft 13 kts 116°
2026-04-17 11:07 4.00145 9.72883 31 ft 13 kts 117°
2026-04-17 11:08 4.00105 9.72963 30 ft 13 kts 117°
2026-04-17 11:08 4.00077 9.73044 29 ft 12 kts 85°
2026-04-17 11:08 4.00048 9.73090 28 ft 5 kts 233°
2026-04-17 11:08 4.00057 9.73058 28 ft 5 kts 295°
2026-04-17 11:09 4.00125 9.72925 31 ft 44 kts 295°
2026-04-17 11:09 4.00369 9.72438 32 ft 115 kts 296°
2026-04-17 11:09 4.00802 9.71561 116 ft 162 kts 297°
2026-04-17 11:10 4.01794 9.69570 1500 ft 159 kts 295°
2026-04-17 11:10 4.02326 9.68532 1805 ft 192 kts 296°
2026-04-17 11:10 4.02993 9.67235 1989 ft 220 kts 296°
2026-04-17 11:10 4.03745 9.65822 2115 ft 241 kts 302°
2026-04-17 11:11 4.05014 9.64630 2363 ft 262 kts 331°
2026-04-17 11:11 4.06801 9.64288 2891 ft 268 kts
2026-04-17 11:11 4.08489 9.65050 3587 ft 269 kts 37°
2026-04-17 11:11 4.10014 9.66134 4473 ft 269 kts 34°
2026-04-17 11:12 4.11608 9.67097 5313 ft 272 kts 31°
2026-04-17 11:12 4.13277 9.68000 6195 ft 273 kts 29°
2026-04-17 11:12 4.14983 9.68881 6943 ft 277 kts 28°
2026-04-17 11:12 4.16622 9.69884 7494 ft 275 kts 45°
2026-04-17 11:13 4.17630 9.71466 7933 ft 270 kts 72°
2026-04-17 11:13 4.17933 9.73328 8646 ft 275 kts 91°
2026-04-17 11:13 4.17776 9.75225 9451 ft 276 kts 95°
2026-04-17 11:13 4.17552 9.77151 10155 ft 281 kts 95°
2026-04-17 11:14 4.17310 9.79156 10379 ft 303 kts 95°
2026-04-17 11:14 4.17052 9.81340 10560 ft 326 kts 95°
2026-04-17 11:14 4.16782 9.83675 10707 ft 347 kts 95°
2026-04-17 11:14 4.16506 9.86110 11019 ft 359 kts 95°
2026-04-17 11:15 4.16225 9.88619 11541 ft 363 kts 95°
2026-04-17 11:15 4.15944 9.91144 12156 ft 365 kts 95°
2026-04-17 11:15 4.15665 9.93668 12737 ft 368 kts 96°
2026-04-17 11:15 4.15381 9.96235 13289 ft 371 kts 96°
2026-04-17 11:16 4.15094 9.98836 13826 ft 375 kts 96°
2026-04-17 11:16 4.14810 10.01412 14298 ft 378 kts 96°
2026-04-17 11:16 4.14518 10.04050 14756 ft 382 kts 96°
2026-04-17 11:16 4.14223 10.06717 15214 ft 385 kts 95°
2026-04-17 11:17 4.13930 10.09365 15667 ft 389 kts 95°
2026-04-17 11:17 4.13629 10.12083 16108 ft 392 kts 95°
2026-04-17 11:17 4.13328 10.14809 16555 ft 396 kts 96°
2026-04-17 11:17 4.13023 10.17560 16990 ft 399 kts 95°
2026-04-17 11:18 4.12718 10.20315 17394 ft 402 kts 95°
2026-04-17 11:18 4.12409 10.23117 17778 ft 406 kts 96°
2026-04-17 11:18 4.12096 10.25940 18200 ft 409 kts 96°
2026-04-17 11:18 4.11780 10.28782 18576 ft 412 kts 96°
2026-04-17 11:19 4.11463 10.31647 18959 ft 414 kts 96°
2026-04-17 11:19 4.11143 10.34525 19157 ft 416 kts 96°
2026-04-17 11:19 4.10823 10.37408 19180 ft 416 kts 96°
2026-04-17 11:19 4.10503 10.40291 19187 ft 416 kts 96°
2026-04-17 11:20 4.10184 10.43171 19199 ft 416 kts 96°
2026-04-17 11:20 4.09866 10.46026 19200 ft 417 kts 96°
2026-04-17 11:20 4.09545 10.48919 19198 ft 417 kts 96°
2026-04-17 11:20 4.09224 10.51810 19198 ft 417 kts 96°
2026-04-17 11:21 4.08902 10.54703 19196 ft 417 kts 96°
2026-04-17 11:21 4.08689 10.56623 19197 ft 417 kts 96°
2026-04-17 11:21 4.08263 10.60456 19204 ft 417 kts 96°
2026-04-17 11:21 4.07941 10.63345 19202 ft 416 kts 96°
2026-04-17 11:22 4.07729 10.65254 19203 ft 416 kts 96°
2026-04-17 11:22 4.07408 10.68135 19202 ft 415 kts 96°
2026-04-17 11:22 4.07088 10.71016 19202 ft 415 kts 96°
2026-04-17 11:22 4.06768 10.73884 19210 ft 414 kts 96°
2026-04-17 11:23 4.06448 10.76762 19216 ft 414 kts 96°
2026-04-17 11:23 4.06132 10.79598 19213 ft 415 kts 96°
2026-04-17 11:23 4.05643 10.82454 19194 ft 416 kts 108°
2026-04-17 11:23 4.04483 10.85111 19225 ft 415 kts 114°
2026-04-17 11:24 4.03246 10.87742 19233 ft 416 kts 114°
2026-04-17 11:24 4.02036 10.90351 19227 ft 418 kts 114°
2026-04-17 11:24 4.00820 10.93005 19225 ft 419 kts 114°
2026-04-17 11:24 3.99615 10.95658 19213 ft 419 kts 113°
2026-04-17 11:25 3.98412 10.98320 19222 ft 418 kts 113°
2026-04-17 11:25 3.97218 11.00971 19223 ft 417 kts 113°
2026-04-17 11:25 3.96026 11.03618 19228 ft 416 kts 113°
2026-04-17 11:25 3.94846 11.06239 19228 ft 416 kts 113°
2026-04-17 11:26 3.93656 11.08885 19238 ft 415 kts 113°
2026-04-17 11:26 3.92465 11.11528 19238 ft 415 kts 113°
2026-04-17 11:26 3.91292 11.14133 19233 ft 415 kts 113°
2026-04-17 11:26 3.90097 11.16786 19231 ft 416 kts 113°
2026-04-17 11:27 3.88907 11.19428 19241 ft 416 kts 113°
2026-04-17 11:27 3.87715 11.22073 19240 ft 416 kts 113°
2026-04-17 11:27 3.86524 11.24716 19239 ft 417 kts 113°
2026-04-17 11:27 3.85328 11.27370 19248 ft 417 kts 113°
2026-04-17 11:28 3.84147 11.29990 19255 ft 417 kts 113°
2026-04-17 11:28 3.82953 11.32638 19264 ft 417 kts 113°
2026-04-17 11:28 3.81756 11.35293 19263 ft 418 kts 113°
2026-04-17 11:28 3.80562 11.37942 19274 ft 417 kts 113°
2026-04-17 11:29 3.79365 11.40597 19282 ft 417 kts 113°
2026-04-17 11:29 3.78169 11.43249 19286 ft 417 kts 113°
2026-04-17 11:29 3.76972 11.45904 19294 ft 417 kts 113°
2026-04-17 11:29 3.75790 11.48525 19293 ft 417 kts 113°
2026-04-17 11:30 3.74596 11.51173 19293 ft 417 kts 113°
2026-04-17 11:30 3.73399 11.53825 19300 ft 417 kts 113°
2026-04-17 11:30 3.72346 11.56521 19282 ft 416 kts 105°
2026-04-17 11:30 3.71681 11.59335 19300 ft 415 kts 102°
2026-04-17 11:31 3.71081 11.62171 19296 ft 416 kts 101°
2026-04-17 11:31 3.70488 11.65007 19302 ft 417 kts 101°
2026-04-17 11:31 3.69889 11.67850 19286 ft 417 kts 102°
2026-04-17 11:31 3.69282 11.70693 19277 ft 417 kts 102°
2026-04-17 11:32 3.68672 11.73526 19276 ft 416 kts 102°
2026-04-17 11:32 3.68061 11.76335 19265 ft 416 kts 102°
2026-04-17 11:32 3.67443 11.79166 19259 ft 416 kts 102°
2026-04-17 11:32 3.66824 11.81995 19253 ft 415 kts 102°
2026-04-17 11:33 3.66206 11.84818 19245 ft 415 kts 102°
2026-04-17 11:33 3.65587 11.87645 19239 ft 415 kts 102°
2026-04-17 11:33 3.64966 11.90478 19223 ft 415 kts 102°
2026-04-17 11:33 3.64348 11.93297 19225 ft 415 kts 102°
2026-04-17 11:34 3.63737 11.96084 19224 ft 415 kts 102°
2026-04-17 11:34 3.63118 11.98909 19220 ft 415 kts 102°
2026-04-17 11:34 3.62501 12.01727 19226 ft 415 kts 102°
2026-04-17 11:34 3.61880 12.04559 19215 ft 415 kts 102°
2026-04-17 11:35 3.61262 12.07379 19221 ft 415 kts 102°
2026-04-17 11:35 3.60643 12.10204 19218 ft 415 kts 102°
2026-04-17 11:35 3.60031 12.12993 19213 ft 415 kts 102°
2026-04-17 11:35 3.59412 12.15814 19222 ft 415 kts 102°
2026-04-17 11:36 3.58790 12.18652 19212 ft 415 kts 102°
2026-04-17 11:36 3.58169 12.21482 19212 ft 415 kts 102°
2026-04-17 11:36 3.57548 12.24310 19212 ft 415 kts 102°
2026-04-17 11:36 3.56935 12.27107 19202 ft 415 kts 102°
2026-04-17 11:37 3.56314 12.29934 19217 ft 415 kts 102°
2026-04-17 11:37 3.55691 12.32774 19202 ft 415 kts 102°
2026-04-17 11:37 3.55071 12.35595 19200 ft 415 kts 102°
2026-04-17 11:37 3.54459 12.38383 19205 ft 414 kts 102°
2026-04-17 11:38 3.53841 12.41200 19205 ft 414 kts 102°
2026-04-17 11:38 3.53221 12.44023 19207 ft 415 kts 102°
2026-04-17 11:38 3.52600 12.46847 19208 ft 415 kts 102°
2026-04-17 11:38 3.51980 12.49671 19195 ft 415 kts 102°
2026-04-17 11:39 3.51359 12.52495 19201 ft 415 kts 102°
2026-04-17 11:39 3.50746 12.55287 19198 ft 415 kts 102°
2026-04-17 11:39 3.50126 12.58106 19191 ft 415 kts 102°
2026-04-17 11:39 3.49505 12.60931 19199 ft 415 kts 102°
2026-04-17 11:40 3.48885 12.63752 19196 ft 415 kts 102°
2026-04-17 11:40 3.48264 12.66578 19185 ft 415 kts 102°
2026-04-17 11:40 3.47642 12.69405 19196 ft 415 kts 102°
2026-04-17 11:40 3.47021 12.72225 19193 ft 415 kts 102°
2026-04-17 11:41 3.46403 12.75025 19190 ft 415 kts 102°
2026-04-17 11:41 3.45781 12.77842 19189 ft 415 kts 102°
2026-04-17 11:41 3.45157 12.80672 19189 ft 415 kts 102°
2026-04-17 11:41 3.44535 12.83489 19187 ft 415 kts 102°
2026-04-17 11:42 3.43912 12.86312 19190 ft 415 kts 102°
2026-04-17 11:42 3.43289 12.89138 19185 ft 415 kts 102°
2026-04-17 11:42 3.42667 12.91953 19168 ft 415 kts 102°
2026-04-17 11:42 3.42044 12.94778 19179 ft 415 kts 102°
2026-04-17 11:43 3.41418 12.97611 19176 ft 415 kts 102°
2026-04-17 11:43 3.40802 13.00401 19176 ft 415 kts 102°
2026-04-17 11:43 3.40177 13.03235 19180 ft 415 kts 102°
2026-04-17 11:43 3.39552 13.06062 19172 ft 415 kts 102°
2026-04-17 11:44 3.38929 13.08884 19166 ft 415 kts 102°
2026-04-17 11:44 3.38312 13.11677 19171 ft 415 kts 102°
2026-04-17 11:44 3.37688 13.14504 19169 ft 415 kts 102°
2026-04-17 11:44 3.37063 13.17329 19169 ft 415 kts 102°
2026-04-17 11:45 3.36439 13.20155 19167 ft 415 kts 102°
2026-04-17 11:45 3.35815 13.22979 19162 ft 415 kts 102°
2026-04-17 11:45 3.35190 13.25807 19168 ft 415 kts 102°
2026-04-17 11:45 3.34574 13.28592 19155 ft 415 kts 102°
2026-04-17 11:46 3.33948 13.31421 19160 ft 415 kts 102°
2026-04-17 11:46 3.33325 13.34242 19169 ft 415 kts 102°
2026-04-17 11:46 3.32700 13.37066 19148 ft 415 kts 102°
2026-04-17 11:46 3.32075 13.39890 19151 ft 415 kts 102°
2026-04-17 11:47 3.31459 13.42677 19158 ft 415 kts 102°
2026-04-17 11:47 3.30834 13.45502 19158 ft 415 kts 102°
2026-04-17 11:47 3.30209 13.48326 19152 ft 415 kts 102°
2026-04-17 11:47 3.29585 13.51149 19145 ft 415 kts 102°
2026-04-17 11:48 3.28967 13.53938 19145 ft 416 kts 102°
2026-04-17 11:48 3.28340 13.56769 19149 ft 416 kts 102°
2026-04-17 11:48 3.27715 13.59599 19139 ft 416 kts 102°
2026-04-17 11:48 3.27090 13.62428 19140 ft 416 kts 102°
2026-04-17 11:49 3.26466 13.65253 19137 ft 416 kts 102°
2026-04-17 11:49 3.25839 13.68088 19131 ft 416 kts 102°
2026-04-17 11:49 3.25215 13.70914 19141 ft 416 kts 102°
2026-04-17 11:49 3.24598 13.73706 19140 ft 416 kts 102°
2026-04-17 11:50 3.23972 13.76537 19133 ft 416 kts 102°
2026-04-17 11:50 3.23347 13.79368 19130 ft 416 kts 102°
2026-04-17 11:50 3.22720 13.82202 19121 ft 416 kts 102°
2026-04-17 11:50 3.22094 13.85033 19120 ft 416 kts 102°
2026-04-17 11:51 3.21477 13.87825 19128 ft 416 kts 102°
2026-04-17 11:51 3.20851 13.90653 19117 ft 416 kts 102°
2026-04-17 11:51 3.20227 13.93477 19126 ft 416 kts 102°
2026-04-17 11:51 3.19602 13.96304 19117 ft 416 kts 102°
2026-04-17 11:52 3.18974 13.99140 19118 ft 416 kts 102°
2026-04-17 11:52 3.18350 14.01962 19121 ft 415 kts 102°
2026-04-17 11:52 3.17726 14.04783 19132 ft 415 kts 102°
2026-04-17 11:52 3.17100 14.07609 19117 ft 415 kts 102°
2026-04-17 11:53 3.16484 14.10396 19116 ft 415 kts 102°
2026-04-17 11:53 3.15860 14.13215 19116 ft 414 kts 102°
2026-04-17 11:53 3.15235 14.16033 19114 ft 414 kts 102°
2026-04-17 11:53 3.14609 14.18860 19118 ft 414 kts 102°
2026-04-17 11:54 3.13993 14.21641 19117 ft 414 kts 102°
2026-04-17 11:54 3.13368 14.24461 19111 ft 414 kts 102°
2026-04-17 11:54 3.12741 14.27290 19115 ft 414 kts 102°
2026-04-17 11:54 3.12118 14.30102 19113 ft 414 kts 102°
2026-04-17 11:55 3.11494 14.32918 19116 ft 414 kts 102°
2026-04-17 11:55 3.10877 14.35703 19112 ft 414 kts 102°
2026-04-17 11:55 3.10246 14.38551 19113 ft 414 kts 102°
2026-04-17 11:55 3.09622 14.41367 19117 ft 414 kts 102°
2026-04-17 11:56 3.09006 14.44147 19116 ft 415 kts 102°
2026-04-17 11:56 3.08381 14.46967 19129 ft 415 kts 102°
2026-04-17 11:56 3.07756 14.49788 19113 ft 415 kts 102°
2026-04-17 11:56 3.07128 14.52617 19109 ft 415 kts 102°
2026-04-17 11:57 3.06501 14.55444 19108 ft 415 kts 102°
2026-04-17 11:57 3.05876 14.58265 19113 ft 415 kts 102°
2026-04-17 11:57 3.05252 14.61079 19112 ft 414 kts 102°
2026-04-17 11:57 3.04626 14.63899 19115 ft 414 kts 102°
2026-04-17 11:58 3.04007 14.66689 19112 ft 414 kts 102°
2026-04-17 11:58 3.03381 14.69512 19114 ft 414 kts 102°
2026-04-17 11:58 3.02756 14.72328 19110 ft 414 kts 102°
2026-04-17 11:58 3.02135 14.75126 19111 ft 414 kts 102°
2026-04-17 11:59 3.01511 14.77938 19115 ft 414 kts 102°
2026-04-17 11:59 3.00884 14.80760 19112 ft 414 kts 102°
2026-04-17 11:59 3.00258 14.83578 19115 ft 414 kts 102°
2026-04-17 11:59 2.99632 14.86397 19110 ft 414 kts 102°
2026-04-17 12:00 2.99014 14.89180 19114 ft 415 kts 102°
2026-04-17 12:00 2.98388 14.92001 19123 ft 415 kts 102°
2026-04-17 12:00 2.97762 14.94816 19114 ft 415 kts 102°
2026-04-17 12:00 2.97136 14.97637 19113 ft 415 kts 102°
2026-04-17 12:01 2.96509 15.00458 19114 ft 415 kts 102°
2026-04-17 12:01 2.95882 15.03279 19116 ft 414 kts 102°
2026-04-17 12:01 2.95258 15.06088 19113 ft 414 kts 102°
2026-04-17 12:01 2.94632 15.08903 19118 ft 414 kts 102°
2026-04-17 12:02 2.94007 15.11717 19121 ft 414 kts 102°
2026-04-17 12:02 2.93380 15.14531 19113 ft 414 kts 102°
2026-04-17 12:02 2.92756 15.17337 19118 ft 414 kts 102°
2026-04-17 12:02 2.92129 15.20158 19118 ft 413 kts 102°
2026-04-17 12:03 2.91504 15.22970 19114 ft 413 kts 102°
2026-04-17 12:03 2.90878 15.25781 19112 ft 413 kts 102°
2026-04-17 12:03 2.90260 15.28556 19112 ft 413 kts 102°
2026-04-17 12:03 2.89635 15.31367 19110 ft 413 kts 102°
2026-04-17 12:04 2.89010 15.34178 19116 ft 413 kts 102°
2026-04-17 12:04 2.88385 15.36987 19122 ft 414 kts 102°
2026-04-17 12:04 2.87759 15.39801 19115 ft 414 kts 102°
2026-04-17 12:04 2.87138 15.42593 19116 ft 414 kts 102°
2026-04-17 12:05 2.86511 15.45408 19127 ft 414 kts 102°
2026-04-17 12:05 2.86096 15.47272 19122 ft 414 kts 102°
2026-04-17 12:05 2.85469 15.50088 19122 ft 414 kts 102°
2026-04-17 12:05 2.84637 15.53824 19123 ft 414 kts 102°
2026-04-17 12:06 2.84011 15.56633 19118 ft 414 kts 102°
2026-04-17 12:06 2.83588 15.58534 19122 ft 414 kts 102°
2026-04-17 12:06 2.82968 15.61317 19121 ft 414 kts 102°
2026-04-17 12:06 2.82341 15.64133 19117 ft 414 kts 102°
2026-04-17 12:07 2.81715 15.66944 19123 ft 414 kts 102°
2026-04-17 12:07 2.81087 15.69761 19113 ft 414 kts 102°
2026-04-17 12:07 2.80460 15.72571 19119 ft 414 kts 102°
2026-04-17 12:07 2.79831 15.75390 19117 ft 414 kts 102°
2026-04-17 12:08 2.79202 15.78205 19114 ft 414 kts 102°
2026-04-17 12:08 2.78582 15.80986 19109 ft 414 kts 102°
2026-04-17 12:08 2.77954 15.83798 19120 ft 414 kts 102°
2026-04-17 12:08 2.77324 15.86618 19108 ft 415 kts 102°
2026-04-17 12:09 2.76693 15.89444 19111 ft 414 kts 102°
2026-04-17 12:09 2.76063 15.92267 19113 ft 414 kts 102°
2026-04-17 12:09 2.75434 15.95083 19113 ft 414 kts 102°
2026-04-17 12:09 2.74813 15.97865 19110 ft 414 kts 102°
2026-04-17 12:10 2.74184 16.00680 19111 ft 414 kts 102°
2026-04-17 12:10 2.73556 16.03495 19114 ft 414 kts 102°
2026-04-17 12:10 2.72926 16.06313 19112 ft 414 kts 102°
2026-04-17 12:10 2.72304 16.09101 19105 ft 414 kts 102°
2026-04-17 12:11 2.71675 16.11913 19113 ft 415 kts 102°
2026-04-17 12:11 2.71044 16.14740 19107 ft 415 kts 102°
2026-04-17 12:11 2.70415 16.17555 19107 ft 415 kts 102°
2026-04-17 12:12 2.69155 16.23193 19103 ft 415 kts 102°
2026-04-17 12:12 2.68525 16.26009 19102 ft 414 kts 102°
2026-04-17 12:12 2.67904 16.28789 19107 ft 414 kts 102°
2026-04-17 12:12 2.67276 16.31597 19104 ft 413 kts 102°
2026-04-17 12:13 2.66646 16.34411 19106 ft 413 kts 102°
2026-04-17 12:13 2.66019 16.37217 19115 ft 413 kts 102°
2026-04-17 12:13 2.65392 16.40020 19112 ft 413 kts 102°
2026-04-17 12:13 2.64766 16.42819 19112 ft 413 kts 102°
2026-04-17 12:14 2.64144 16.45599 19107 ft 413 kts 102°
2026-04-17 12:14 2.63516 16.48403 19105 ft 413 kts 102°
2026-04-17 12:14 2.62890 16.51204 19105 ft 413 kts 102°
2026-04-17 12:14 2.62262 16.54011 19110 ft 413 kts 102°
2026-04-17 12:15 2.61633 16.56819 19111 ft 413 kts 102°
2026-04-17 12:15 2.61013 16.59588 19108 ft 413 kts 102°
2026-04-17 12:15 2.60385 16.62396 19108 ft 413 kts 102°
2026-04-17 12:15 2.59755 16.65210 19112 ft 413 kts 102°
2026-04-17 12:16 2.59127 16.68013 19114 ft 413 kts 102°
2026-04-17 12:16 2.58497 16.70826 19110 ft 413 kts 102°
2026-04-17 12:16 2.57868 16.73637 19112 ft 413 kts 102°
2026-04-17 12:16 2.57247 16.76406 19113 ft 413 kts 102°
2026-04-17 12:17 2.56619 16.79210 19113 ft 413 kts 102°
2026-04-17 12:17 2.55990 16.82018 19105 ft 413 kts 102°
2026-04-17 12:17 2.55360 16.84831 19102 ft 413 kts 102°
2026-04-17 12:17 2.54731 16.87638 19107 ft 413 kts 102°
2026-04-17 12:18 2.54103 16.90438 19106 ft 413 kts 102°
2026-04-17 12:18 2.53475 16.93242 19114 ft 412 kts 102°
2026-04-17 12:18 2.52855 16.96008 19110 ft 412 kts 102°
2026-04-17 12:18 2.52227 16.98810 19111 ft 412 kts 102°
2026-04-17 12:19 2.51598 17.01613 19113 ft 413 kts 102°
2026-04-17 12:19 2.50970 17.04417 19113 ft 413 kts 102°
2026-04-17 12:19 2.50341 17.07222 19109 ft 413 kts 101°
2026-04-17 12:19 2.49711 17.10028 19111 ft 413 kts 102°
2026-04-17 12:20 2.49089 17.12802 19110 ft 413 kts 102°
2026-04-17 12:20 2.48460 17.15605 19109 ft 413 kts 102°
2026-04-17 12:20 2.47831 17.18409 19109 ft 413 kts 102°
2026-04-17 12:20 2.47203 17.21208 19107 ft 413 kts 102°
2026-04-17 12:21 2.46571 17.24026 19106 ft 413 kts 102°
2026-04-17 12:21 2.45939 17.26843 19106 ft 413 kts 101°
2026-04-17 12:21 2.45317 17.29613 19107 ft 413 kts 101°
2026-04-17 12:21 2.44688 17.32418 19105 ft 413 kts 102°
2026-04-17 12:22 2.44057 17.35229 19105 ft 413 kts 101°
2026-04-17 12:22 2.43427 17.38034 19105 ft 413 kts 102°
2026-04-17 12:22 2.42798 17.40838 19108 ft 413 kts 102°
2026-04-17 12:22 2.42170 17.43635 19104 ft 413 kts 102°
2026-04-17 12:23 2.41547 17.46406 19105 ft 412 kts 102°
2026-04-17 12:23 2.40918 17.49207 19104 ft 412 kts 101°
2026-04-17 12:23 2.40289 17.52007 19105 ft 412 kts 102°
2026-04-17 12:23 2.39661 17.54806 19105 ft 412 kts 102°
2026-04-17 12:24 2.39030 17.57615 19103 ft 412 kts 102°
2026-04-17 12:24 2.38410 17.60377 19103 ft 412 kts 102°
2026-04-17 12:24 2.37779 17.63183 19104 ft 412 kts 102°
2026-04-17 12:24 2.37151 17.65981 19102 ft 412 kts 102°
2026-04-17 12:25 2.36514 17.68788 19105 ft 412 kts 102°
2026-04-17 12:25 2.35862 17.71589 19103 ft 413 kts 102°
2026-04-17 12:25 2.35208 17.74384 19103 ft 413 kts 102°
2026-04-17 12:25 2.34569 17.77158 19105 ft 413 kts 101°
2026-04-17 12:26 2.33958 17.79965 19106 ft 413 kts 101°
2026-04-17 12:26 2.33363 17.82777 19106 ft 413 kts 101°
2026-04-17 12:26 2.32770 17.85592 19105 ft 413 kts 101°
2026-04-17 12:26 2.32183 17.88373 19103 ft 413 kts 101°
2026-04-17 12:27 2.31585 17.91188 19103 ft 413 kts 101°
2026-04-17 12:27 2.30985 17.94004 19100 ft 413 kts 101°
2026-04-17 12:27 2.30384 17.96815 19103 ft 413 kts 101°
2026-04-17 12:27 2.29784 17.99620 19102 ft 413 kts 101°
2026-04-17 12:28 2.29189 18.02400 19107 ft 413 kts 101°
2026-04-17 12:28 2.28589 18.05205 19103 ft 413 kts 101°
2026-04-17 12:28 2.27986 18.08022 19107 ft 413 kts 101°
2026-04-17 12:28 2.27385 18.10830 19104 ft 413 kts 101°
2026-04-17 12:29 2.26763 18.13634 19104 ft 413 kts 102°
2026-04-17 12:29 2.26084 18.16388 19107 ft 413 kts 103°
2026-04-17 12:29 2.25371 18.19172 19106 ft 413 kts 103°
2026-04-17 12:29 2.24656 18.21948 19106 ft 413 kts 103°
2026-04-17 12:30 2.23942 18.24740 19103 ft 413 kts 103°
2026-04-17 12:30 2.23234 18.27531 19105 ft 413 kts 103°
2026-04-17 12:30 2.22531 18.30321 19105 ft 413 kts 103°
2026-04-17 12:30 2.21841 18.33074 19105 ft 413 kts 103°
2026-04-17 12:31 2.21142 18.35862 19104 ft 413 kts 103°
2026-04-17 12:31 2.20445 18.38646 19102 ft 413 kts 103°
2026-04-17 12:31 2.19746 18.41435 19101 ft 413 kts 103°
2026-04-17 12:31 2.19045 18.44231 19106 ft 413 kts 103°
2026-04-17 12:32 2.18355 18.46983 19105 ft 412 kts 103°
2026-04-17 12:32 2.17656 18.49772 19106 ft 412 kts 103°
2026-04-17 12:32 2.16967 18.52573 19100 ft 412 kts 103°
2026-04-17 12:32 2.16290 18.55362 19101 ft 412 kts 102°
2026-04-17 12:33 2.15626 18.58106 19099 ft 412 kts 102°
2026-04-17 12:33 2.14953 18.60886 19100 ft 411 kts 102°
2026-04-17 12:33 2.14279 18.63669 19100 ft 411 kts 102°
2026-04-17 12:33 2.13604 18.66450 19099 ft 411 kts 102°
2026-04-17 12:34 2.12928 18.69234 19103 ft 411 kts 103°
2026-04-17 12:34 2.12252 18.72016 19103 ft 411 kts 103°
2026-04-17 12:34 2.11573 18.74807 19102 ft 411 kts 103°
2026-04-17 12:34 2.10905 18.77553 19104 ft 411 kts 103°
2026-04-17 12:35 2.10228 18.80337 19101 ft 412 kts 103°
2026-04-17 12:35 2.09551 18.83124 19100 ft 413 kts 103°
2026-04-17 12:35 2.08870 18.85922 19100 ft 413 kts 103°
2026-04-17 12:35 2.08190 18.88716 19103 ft 412 kts 103°
2026-04-17 12:37 2.03457 19.08167 19100 ft 412 kts 103°
2026-04-17 12:37 2.02780 19.10952 19100 ft 412 kts 103°
2026-04-17 12:38 2.02102 19.13736 19099 ft 412 kts 103°
2026-04-17 12:38 2.01423 19.16527 19098 ft 412 kts 103°
2026-04-17 12:38 2.00743 19.19321 19097 ft 412 kts 103°
2026-04-17 12:38 2.00059 19.22104 19096 ft 412 kts 103°
2026-04-17 12:39 1.99378 19.24846 19099 ft 412 kts 103°
2026-04-17 12:39 1.98685 19.27626 19100 ft 412 kts 103°
2026-04-17 12:39 1.97991 19.30412 19100 ft 412 kts 103°
2026-04-17 12:39 1.97299 19.33197 19099 ft 412 kts 103°
2026-04-17 12:40 1.96607 19.35983 19099 ft 412 kts 103°
2026-04-17 12:40 1.95925 19.38727 19100 ft 412 kts 103°
2026-04-17 12:40 1.95234 19.41511 19097 ft 412 kts 103°
2026-04-17 12:40 1.94546 19.44286 19100 ft 412 kts 103°
2026-04-17 12:41 1.93855 19.47067 19098 ft 412 kts 103°
2026-04-17 12:41 1.93164 19.49857 19092 ft 412 kts 103°
2026-04-17 12:41 1.92480 19.52647 19094 ft 411 kts 103°
2026-04-17 12:41 1.91803 19.55426 19093 ft 411 kts 103°
2026-04-17 12:42 1.91127 19.58205 19093 ft 411 kts 103°
2026-04-17 12:42 1.90461 19.60941 19094 ft 411 kts 103°
2026-04-17 12:42 1.89785 19.63717 19094 ft 410 kts 103°
2026-04-17 12:42 1.89108 19.66490 19094 ft 410 kts 103°
2026-04-17 12:43 1.88432 19.69265 19095 ft 411 kts 103°
2026-04-17 12:43 1.87753 19.72046 19095 ft 411 kts 103°
2026-04-17 12:43 1.87077 19.74817 19094 ft 411 kts 103°
2026-04-17 12:43 1.86398 19.77600 19093 ft 411 kts 103°
2026-04-17 12:44 1.85722 19.80370 19089 ft 411 kts 103°
2026-04-17 12:44 1.85044 19.83148 19087 ft 411 kts 103°
2026-04-17 12:44 1.84365 19.85928 19089 ft 411 kts 103°
2026-04-17 12:44 1.83695 19.88672 19090 ft 411 kts 103°
2026-04-17 12:45 1.83020 19.91440 19093 ft 411 kts 103°
2026-04-17 12:45 1.82340 19.94221 19088 ft 411 kts 103°
2026-04-17 12:45 1.81658 19.96996 19088 ft 411 kts 103°
2026-04-17 12:45 1.80964 19.99774 19088 ft 410 kts 103°
2026-04-17 12:46 1.80271 20.02539 19092 ft 410 kts 103°
2026-04-17 12:46 1.79575 20.05312 19093 ft 410 kts 103°
2026-04-17 12:46 1.78881 20.08082 19089 ft 411 kts 103°
2026-04-17 12:46 1.78195 20.10824 19087 ft 411 kts 103°
2026-04-17 12:47 1.77502 20.13594 19084 ft 411 kts 103°
2026-04-17 12:47 1.76808 20.16370 19086 ft 411 kts 103°
2026-04-17 12:47 1.76113 20.19149 19087 ft 411 kts 103°
2026-04-17 12:47 1.75420 20.21922 19088 ft 412 kts 103°
2026-04-17 12:48 1.74723 20.24709 19086 ft 412 kts 103°
2026-04-17 12:48 1.74028 20.27491 19088 ft 412 kts 103°
2026-04-17 12:48 1.73331 20.30277 19085 ft 412 kts 103°
2026-04-17 12:48 1.72647 20.33014 19088 ft 412 kts 103°
2026-04-17 12:49 1.71944 20.35826 19082 ft 412 kts 103°
2026-04-17 12:49 1.71258 20.38571 19083 ft 412 kts 103°
2026-04-17 12:49 1.70563 20.41349 19084 ft 412 kts 103°
2026-04-17 12:49 1.69867 20.44135 19084 ft 412 kts 103°
2026-04-17 12:50 1.69172 20.46912 19085 ft 412 kts 103°
2026-04-17 12:50 1.68476 20.49697 19086 ft 412 kts 103°
2026-04-17 12:50 1.67781 20.52477 19089 ft 412 kts 103°
2026-04-17 12:50 1.67086 20.55256 19086 ft 412 kts 103°
2026-04-17 12:51 1.66398 20.58003 19086 ft 412 kts 103°
2026-04-17 12:51 1.65709 20.60779 19090 ft 411 kts 103°
2026-04-17 12:51 1.65027 20.63560 19090 ft 411 kts 103°
2026-04-17 12:51 1.64348 20.66345 19087 ft 411 kts 103°
2026-04-17 12:52 1.63672 20.69124 19087 ft 411 kts 103°
2026-04-17 12:52 1.62995 20.71905 19089 ft 410 kts 103°
2026-04-17 12:52 1.62320 20.74678 19091 ft 410 kts 103°
2026-04-17 12:52 1.61871 20.76517 19089 ft 410 kts 103°
2026-04-17 12:53 1.60975 20.80189 19089 ft 410 kts 103°
2026-04-17 12:53 1.60298 20.82961 19088 ft 410 kts 103°
2026-04-17 12:53 1.59848 20.84805 19087 ft 410 kts 103°
2026-04-17 12:53 1.59170 20.87579 19090 ft 411 kts 103°
2026-04-17 12:54 1.58491 20.90361 19091 ft 411 kts 103°
2026-04-17 12:54 1.57812 20.93140 19092 ft 411 kts 103°
2026-04-17 12:54 1.57134 20.95916 19087 ft 411 kts 103°
2026-04-17 12:54 1.56454 20.98697 19094 ft 411 kts 103°
2026-04-17 12:55 1.55775 21.01477 19094 ft 411 kts 103°
2026-04-17 12:55 1.55096 21.04258 19097 ft 411 kts 103°
2026-04-17 12:55 1.54417 21.07037 19094 ft 411 kts 103°
2026-04-17 12:55 1.53745 21.09787 19094 ft 411 kts 103°
2026-04-17 12:56 1.53066 21.12562 19095 ft 411 kts 103°
2026-04-17 12:56 1.52385 21.15349 19091 ft 412 kts 103°
2026-04-17 12:56 1.51705 21.18132 19092 ft 412 kts 103°
2026-04-17 12:56 1.51025 21.20914 19091 ft 412 kts 103°
2026-04-17 12:57 1.50345 21.23699 19099 ft 412 kts 103°
2026-04-17 12:57 1.49665 21.26479 19095 ft 412 kts 103°
2026-04-17 12:57 1.48994 21.29224 19095 ft 412 kts 103°
2026-04-17 12:57 1.48312 21.32013 19097 ft 412 kts 103°
2026-04-17 12:58 1.47631 21.34801 19095 ft 412 kts 103°
2026-04-17 12:58 1.46950 21.37587 19093 ft 412 kts 103°
2026-04-17 12:58 1.46271 21.40362 19094 ft 412 kts 103°
2026-04-17 12:58 1.45599 21.43110 19094 ft 411 kts 103°
2026-04-17 12:59 1.44920 21.45891 19094 ft 411 kts 103°
2026-04-17 12:59 1.44239 21.48676 19097 ft 411 kts 103°
2026-04-17 12:59 1.43558 21.51458 19094 ft 411 kts 103°
2026-04-17 12:59 1.42875 21.54240 19092 ft 412 kts 103°
2026-04-17 13:00 1.42196 21.56994 19089 ft 412 kts 103°
2026-04-17 13:00 1.41510 21.59773 19086 ft 412 kts 103°
2026-04-17 13:00 1.40816 21.62585 19092 ft 412 kts 103°
2026-04-17 13:00 1.40139 21.65328 19092 ft 412 kts 103°
2026-04-17 13:01 1.39453 21.68109 19092 ft 412 kts 103°
2026-04-17 13:01 1.38766 21.70894 19092 ft 412 kts 103°
2026-04-17 13:01 1.38078 21.73682 19088 ft 413 kts 103°
2026-04-17 13:01 1.37392 21.76466 19086 ft 413 kts 103°
2026-04-17 13:02 1.36706 21.79248 19095 ft 413 kts 103°
2026-04-17 13:02 1.36018 21.82036 19089 ft 413 kts 103°
2026-04-17 13:02 1.35332 21.84818 19088 ft 413 kts 103°
2026-04-17 13:02 1.34643 21.87611 19090 ft 413 kts 103°
2026-04-17 13:03 1.33957 21.90395 19092 ft 413 kts 103°
2026-04-17 13:03 1.33269 21.93184 19090 ft 413 kts 103°
2026-04-17 13:03 1.32590 21.95937 19089 ft 413 kts 103°
2026-04-17 13:03 1.31901 21.98730 19090 ft 413 kts 103°
2026-04-17 13:04 1.31212 22.01524 19087 ft 413 kts 103°
2026-04-17 13:04 1.30524 22.04313 19086 ft 413 kts 103°
2026-04-17 13:04 1.29836 22.07101 19090 ft 413 kts 103°
2026-04-17 13:04 1.29150 22.09882 19088 ft 413 kts 103°
2026-04-17 13:05 1.28462 22.12670 19088 ft 413 kts 103°
2026-04-17 13:05 1.27775 22.15457 19088 ft 412 kts 103°
2026-04-17 13:05 1.27095 22.18212 19087 ft 412 kts 103°
2026-04-17 13:05 1.26408 22.20991 19086 ft 412 kts 103°
2026-04-17 13:06 1.25717 22.23780 19086 ft 412 kts 103°
2026-04-17 13:06 1.25028 22.26560 19087 ft 412 kts 103°
2026-04-17 13:06 1.24339 22.29341 19088 ft 412 kts 103°
2026-04-17 13:06 1.23649 22.32125 19092 ft 412 kts 103°
2026-04-17 13:07 1.22960 22.34909 19083 ft 412 kts 103°
2026-04-17 13:07 1.22280 22.37655 19082 ft 412 kts 103°
2026-04-17 13:07 1.21590 22.40437 19083 ft 412 kts 103°
2026-04-17 13:07 1.20903 22.43212 19084 ft 412 kts 103°
2026-04-17 13:08 1.20214 22.45996 19085 ft 412 kts 103°
2026-04-17 13:08 1.19527 22.48769 19086 ft 412 kts 103°
2026-04-17 13:08 1.18837 22.51554 19083 ft 411 kts 103°
2026-04-17 13:08 1.18150 22.54327 19082 ft 411 kts 103°
2026-04-17 13:09 1.17463 22.57100 19081 ft 411 kts 103°
2026-04-17 13:09 1.16777 22.59872 19080 ft 410 kts 103°
2026-04-17 13:09 1.16091 22.62642 19082 ft 410 kts 103°
2026-04-17 13:09 1.15412 22.65382 19083 ft 410 kts 103°
2026-04-17 13:10 1.14726 22.68151 19083 ft 410 kts 103°
2026-04-17 13:10 1.14040 22.70919 19079 ft 410 kts 103°
2026-04-17 13:10 1.13352 22.73695 19079 ft 410 kts 103°
2026-04-17 13:10 1.12666 22.76465 19081 ft 410 kts 103°
2026-04-17 13:11 1.11980 22.79232 19082 ft 410 kts 103°
2026-04-17 13:11 1.11300 22.81979 19082 ft 411 kts 103°
2026-04-17 13:11 1.10613 22.84750 19078 ft 410 kts 103°
2026-04-17 13:11 1.09927 22.87518 19081 ft 410 kts 103°
2026-04-17 13:12 1.09240 22.90288 19079 ft 410 kts 103°
2026-04-17 13:12 1.07868 22.95825 19082 ft 410 kts 103°
2026-04-17 13:12 1.07181 22.98598 19078 ft 410 kts 103°
2026-04-17 13:13 1.06494 23.01368 19075 ft 409 kts 103°
2026-04-17 13:13 1.05818 23.04094 19079 ft 409 kts 103°
2026-04-17 13:13 1.05133 23.06859 19081 ft 410 kts 103°
2026-04-17 13:13 1.04446 23.09632 19078 ft 410 kts 103°
2026-04-17 13:14 1.03760 23.12399 19078 ft 410 kts 103°
2026-04-17 13:14 1.03072 23.15175 19081 ft 411 kts 103°
2026-04-17 13:14 1.02384 23.17950 19080 ft 411 kts 103°
2026-04-17 13:14 1.01696 23.20723 19079 ft 411 kts 103°
2026-04-17 13:15 1.01015 23.23468 19075 ft 411 kts 103°
2026-04-17 13:15 1.00326 23.26248 19075 ft 411 kts 103°
2026-04-17 13:15 0.99637 23.29027 19078 ft 411 kts 103°
2026-04-17 13:15 0.98950 23.31797 19078 ft 411 kts 103°
2026-04-17 13:16 0.98262 23.34571 19080 ft 411 kts 103°
2026-04-17 13:16 0.97581 23.37319 19076 ft 411 kts 103°
2026-04-17 13:16 0.96885 23.40124 19078 ft 411 kts 103°
2026-04-17 13:16 0.96206 23.42863 19077 ft 411 kts 103°
2026-04-17 13:17 0.95518 23.45635 19078 ft 411 kts 103°
2026-04-17 13:17 0.94829 23.48414 19080 ft 411 kts 103°
2026-04-17 13:17 0.94141 23.51188 19078 ft 411 kts 103°
2026-04-17 13:17 0.93453 23.53961 19076 ft 411 kts 103°
2026-04-17 13:18 0.92765 23.56737 19076 ft 411 kts 103°
2026-04-17 13:18 0.92084 23.59479 19080 ft 411 kts 103°
2026-04-17 13:18 0.91396 23.62253 19080 ft 411 kts 103°
2026-04-17 13:18 0.90707 23.65029 19080 ft 411 kts 103°
2026-04-17 13:19 0.90019 23.67806 19082 ft 411 kts 103°
2026-04-17 13:19 0.89330 23.70581 19080 ft 411 kts 103°
2026-04-17 13:19 0.88640 23.73363 19078 ft 411 kts 103°
2026-04-17 13:19 0.87962 23.76095 19079 ft 411 kts 103°
2026-04-17 13:20 0.87272 23.78875 19082 ft 411 kts 103°
2026-04-17 13:20 0.86583 23.81653 19082 ft 411 kts 103°
2026-04-17 13:20 0.85902 23.84396 19080 ft 411 kts 103°
2026-04-17 13:20 0.85215 23.87165 19078 ft 411 kts 103°
2026-04-17 13:21 0.84525 23.89946 19086 ft 411 kts 103°
2026-04-17 13:21 0.83837 23.92720 19081 ft 411 kts 103°
2026-04-17 13:21 0.83148 23.95495 19087 ft 411 kts 103°
2026-04-17 13:21 0.82457 23.98278 19088 ft 411 kts 103°
2026-04-17 13:22 0.81778 24.01014 19085 ft 411 kts 103°
2026-04-17 13:22 0.81089 24.03793 19087 ft 411 kts 103°
2026-04-17 13:22 0.80398 24.06574 19090 ft 411 kts 103°
2026-04-17 13:22 0.79718 24.09314 19085 ft 411 kts 103°
2026-04-17 13:23 0.79029 24.12091 19085 ft 411 kts 103°
2026-04-17 13:23 0.78341 24.14864 19090 ft 411 kts 103°
2026-04-17 13:23 0.77652 24.17638 19088 ft 411 kts 103°
2026-04-17 13:23 0.76963 24.20413 19088 ft 411 kts 103°
2026-04-17 13:24 0.76273 24.23193 19089 ft 411 kts 103°
2026-04-17 13:24 0.75584 24.25969 19093 ft 411 kts 103°
2026-04-17 13:24 0.74895 24.28745 19091 ft 411 kts 103°
2026-04-17 13:24 0.74215 24.31482 19092 ft 411 kts 103°
2026-04-17 13:25 0.73528 24.34253 19094 ft 411 kts 103°
2026-04-17 13:25 0.72838 24.37030 19092 ft 411 kts 103°
2026-04-17 13:25 0.72150 24.39800 19100 ft 411 kts 103°
2026-04-17 13:25 0.71462 24.42575 19098 ft 410 kts 103°
2026-04-17 13:26 0.70773 24.45348 19092 ft 410 kts 103°
2026-04-17 13:26 0.70095 24.48082 19094 ft 410 kts 103°
2026-04-17 13:26 0.69405 24.50862 19089 ft 410 kts 103°
2026-04-17 13:26 0.68717 24.53629 19095 ft 409 kts 103°
2026-04-17 13:27 0.68042 24.56372 19102 ft 409 kts 103°
2026-04-17 13:27 0.67361 24.59157 19099 ft 409 kts 103°
2026-04-17 13:27 0.66686 24.61920 19097 ft 409 kts 103°
2026-04-17 13:27 0.66017 24.64663 19101 ft 409 kts 103°
2026-04-17 13:28 0.65339 24.67440 19104 ft 409 kts 103°
2026-04-17 13:28 0.64669 24.70179 19107 ft 409 kts 103°
2026-04-17 13:28 0.63992 24.72949 19107 ft 409 kts 103°
2026-04-17 13:28 0.63313 24.75729 19106 ft 409 kts 103°
2026-04-17 13:29 0.62644 24.78466 19108 ft 409 kts 103°
2026-04-17 13:29 0.61965 24.81242 19111 ft 409 kts 103°
2026-04-17 13:29 0.61295 24.83979 19115 ft 410 kts 103°
2026-04-17 13:29 0.60614 24.86764 19109 ft 410 kts 103°
2026-04-17 13:30 0.59935 24.89540 19111 ft 410 kts 103°
2026-04-17 13:30 0.59267 24.92273 19109 ft 410 kts 103°
2026-04-17 13:30 0.58585 24.95061 19111 ft 410 kts 103°
2026-04-17 13:30 0.57914 24.97805 19111 ft 410 kts 103°
2026-04-17 13:31 0.57235 25.00582 19111 ft 410 kts 103°
2026-04-17 13:31 0.56555 25.03360 19110 ft 410 kts 103°
2026-04-17 13:31 0.55885 25.06099 19113 ft 410 kts 103°
2026-04-17 13:31 0.55206 25.08876 19114 ft 410 kts 103°
2026-04-17 13:32 0.54527 25.11653 19113 ft 410 kts 103°
2026-04-17 13:32 0.53858 25.14388 19124 ft 410 kts 103°
2026-04-17 13:32 0.53178 25.17166 19125 ft 410 kts 103°
2026-04-17 13:32 0.52503 25.19928 19123 ft 410 kts 103°
2026-04-17 13:33 0.51827 25.22692 19125 ft 410 kts 103°
2026-04-17 13:33 0.51148 25.25468 19124 ft 410 kts 103°
2026-04-17 13:33 0.50473 25.28226 19130 ft 410 kts 103°
2026-04-17 13:33 0.49759 25.30989 19129 ft 410 kts 107°
2026-04-17 13:34 0.48678 25.33628 19180 ft 411 kts 117°
2026-04-17 13:34 0.47284 25.36122 19190 ft 410 kts 119°
2026-04-17 13:34 0.45881 25.38572 19181 ft 410 kts 119°
2026-04-17 13:34 0.44467 25.41036 19182 ft 409 kts 119°
2026-04-17 13:35 0.43056 25.43509 19177 ft 409 kts 119°
2026-04-17 13:35 0.41649 25.45993 19175 ft 409 kts 118°
2026-04-17 13:35 0.40271 25.48435 19169 ft 408 kts 118°
2026-04-17 13:35 0.38873 25.50922 19165 ft 408 kts 118°
2026-04-17 13:36 0.37493 25.53380 19160 ft 409 kts 118°
2026-04-17 13:36 0.36103 25.55861 19154 ft 409 kts 118°
2026-04-17 13:36 0.34713 25.58339 19146 ft 409 kts 118°
2026-04-17 13:36 0.33317 25.60831 19142 ft 409 kts 118°
2026-04-17 13:37 0.31917 25.63327 19139 ft 410 kts 118°
2026-04-17 13:37 0.30536 25.65791 19134 ft 410 kts 118°
2026-04-17 13:37 0.29139 25.68282 19132 ft 410 kts 118°
2026-04-17 13:37 0.27736 25.70785 19129 ft 411 kts 118°
2026-04-17 13:38 0.26354 25.73248 19131 ft 411 kts 118°
2026-04-17 13:38 0.24956 25.75741 19134 ft 411 kts 118°
2026-04-17 13:38 0.23560 25.78232 19129 ft 411 kts 118°
2026-04-17 13:38 0.22163 25.80724 19127 ft 411 kts 118°
2026-04-17 13:39 0.20767 25.83212 19130 ft 410 kts 118°
2026-04-17 13:39 0.19368 25.85707 19127 ft 410 kts 118°
2026-04-17 13:39 0.18441 25.87361 19130 ft 410 kts 118°
2026-04-17 13:39 0.16590 25.90662 19130 ft 410 kts 118°
2026-04-17 13:40 0.15666 25.92310 19128 ft 410 kts 118°
2026-04-17 13:40 0.14267 25.94806 19125 ft 410 kts 118°
2026-04-17 13:40 0.12420 25.98099 19127 ft 410 kts 118°
2026-04-17 13:40 0.11493 25.99754 19129 ft 410 kts 118°
2026-04-17 13:41 0.10102 26.02236 19127 ft 410 kts 118°
2026-04-17 13:41 0.08703 26.04730 19127 ft 410 kts 118°
2026-04-17 13:41 0.07303 26.07227 19127 ft 410 kts 118°
2026-04-17 13:41 0.05930 26.09686 19129 ft 410 kts 118°
2026-04-17 13:42 0.04537 26.12188 19129 ft 410 kts 118°
2026-04-17 13:42 0.03149 26.14684 19125 ft 410 kts 118°
2026-04-17 13:42 0.01762 26.17179 19127 ft 410 kts 118°
2026-04-17 13:42 0.00377 26.19671 19130 ft 410 kts 118°
2026-04-17 13:43 -0.00994 26.22137 19124 ft 410 kts 118°
2026-04-17 13:43 -0.02381 26.24632 19121 ft 411 kts 118°
2026-04-17 13:43 -0.03773 26.27134 19120 ft 411 kts 118°
2026-04-17 13:43 -0.05167 26.29639 19121 ft 411 kts 118°
2026-04-17 13:44 -0.06557 26.32138 19114 ft 411 kts 118°
2026-04-17 13:44 -0.07947 26.34638 19125 ft 411 kts 118°
2026-04-17 13:44 -0.09339 26.37140 19121 ft 411 kts 118°
2026-04-17 13:44 -0.10716 26.39615 19122 ft 411 kts 118°
2026-04-17 13:45 -0.12110 26.42120 19123 ft 411 kts 118°
2026-04-17 13:45 -0.13498 26.44616 19120 ft 411 kts 118°
2026-04-17 13:45 -0.14888 26.47115 19124 ft 411 kts 118°
2026-04-17 13:45 -0.16261 26.49582 19123 ft 411 kts 118°
2026-04-17 13:46 -0.17653 26.52085 19121 ft 411 kts 118°
2026-04-17 13:46 -0.19042 26.54582 19122 ft 411 kts 118°
2026-04-17 13:46 -0.20435 26.57085 19122 ft 411 kts 118°
2026-04-17 13:46 -0.21811 26.59559 19123 ft 410 kts 118°
2026-04-17 13:47 -0.23200 26.62056 19123 ft 409 kts 118°
2026-04-17 13:47 -0.24586 26.64547 19123 ft 409 kts 118°
2026-04-17 13:47 -0.25964 26.67026 19124 ft 408 kts 118°
2026-04-17 13:47 -0.27343 26.69504 19124 ft 408 kts 118°
2026-04-17 13:48 -0.28721 26.71982 19124 ft 408 kts 118°
2026-04-17 13:48 -0.30099 26.74459 19123 ft 408 kts 118°
2026-04-17 13:48 -0.31480 26.76941 19121 ft 408 kts 118°
2026-04-17 13:48 -0.32859 26.79421 19120 ft 408 kts 118°
2026-04-17 13:49 -0.34228 26.81881 19124 ft 408 kts 118°
2026-04-17 13:49 -0.35608 26.84364 19127 ft 409 kts 118°
2026-04-17 13:49 -0.36992 26.86851 19124 ft 409 kts 118°
2026-04-17 13:49 -0.38377 26.89341 19122 ft 409 kts 119°
2026-04-17 13:50 -0.39762 26.91832 19120 ft 409 kts 119°
2026-04-17 13:50 -0.41147 26.94321 19123 ft 409 kts 119°
2026-04-17 13:50 -0.42532 26.96812 19127 ft 410 kts 119°
2026-04-17 13:50 -0.43903 26.99276 19123 ft 410 kts 119°
2026-04-17 13:51 -0.45291 27.01772 19128 ft 410 kts 119°
2026-04-17 13:51 -0.46675 27.04261 19131 ft 410 kts 119°
2026-04-17 13:51 -0.48066 27.06761 19125 ft 410 kts 119°
2026-04-17 13:51 -0.49438 27.09228 19128 ft 410 kts 119°
2026-04-17 13:52 -0.50822 27.11716 19124 ft 410 kts 119°
2026-04-17 13:52 -0.52207 27.14207 19124 ft 409 kts 119°
2026-04-17 13:52 -0.53592 27.16697 19125 ft 409 kts 119°
2026-04-17 13:52 -0.54971 27.19177 19124 ft 409 kts 119°
2026-04-17 13:53 -0.56354 27.21663 19124 ft 409 kts 119°
2026-04-17 13:53 -0.57723 27.24125 19127 ft 409 kts 119°
2026-04-17 13:53 -0.59105 27.26611 19129 ft 409 kts 119°
2026-04-17 13:53 -0.60487 27.29094 19130 ft 409 kts 119°
2026-04-17 13:54 -0.63258 27.34077 19128 ft 409 kts 119°
2026-04-17 13:54 -0.64627 27.36539 19121 ft 409 kts 119°
2026-04-17 13:55 -0.67396 27.41520 19122 ft 409 kts 119°
2026-04-17 13:55 -0.68779 27.44007 19120 ft 409 kts 118°
2026-04-17 13:55 -0.71532 27.48956 19116 ft 409 kts 118°
2026-04-17 13:56 -0.74308 27.53949 19115 ft 409 kts 118°
2026-04-17 13:56 -0.75690 27.56434 19115 ft 409 kts 118°
2026-04-17 13:56 -0.77074 27.58925 19114 ft 409 kts 119°
2026-04-17 13:57 -0.78443 27.61385 19110 ft 409 kts 118°
2026-04-17 13:57 -0.79828 27.63877 19110 ft 409 kts 118°
2026-04-17 13:57 -0.82597 27.68857 19103 ft 409 kts 118°
2026-04-17 13:58 -0.83981 27.71347 19108 ft 409 kts 118°
2026-04-17 13:58 -0.86738 27.76306 19103 ft 409 kts 118°
2026-04-17 13:58 -0.88124 27.78798 19104 ft 409 kts 118°
2026-04-17 13:59 -0.90873 27.83743 19106 ft 409 kts 118°
2026-04-17 13:59 -0.92255 27.86229 19105 ft 409 kts 118°
2026-04-17 13:59 -0.93645 27.88730 19116 ft 409 kts 118°
2026-04-17 14:00 -0.95024 27.91211 19108 ft 409 kts 118°
2026-04-17 14:00 -0.96409 27.93702 19101 ft 409 kts 118°
2026-04-17 14:00 -0.97794 27.96195 19104 ft 409 kts 118°
2026-04-17 14:00 -0.99158 27.98650 19105 ft 409 kts 118°
2026-04-17 14:01 -1.00541 28.01137 19105 ft 410 kts 118°
2026-04-17 14:01 -1.01927 28.03630 19097 ft 410 kts 118°
2026-04-17 14:01 -1.03314 28.06126 19098 ft 410 kts 118°
2026-04-17 14:01 -1.04697 28.08615 19117 ft 409 kts 118°
2026-04-17 14:02 -1.06083 28.11109 19108 ft 409 kts 118°
2026-04-17 14:02 -1.07445 28.13560 19108 ft 407 kts 118°
2026-04-17 14:02 -1.08822 28.16037 19112 ft 406 kts 118°
2026-04-17 14:02 -1.10198 28.18516 19097 ft 407 kts 118°
2026-04-17 14:03 -1.11574 28.20993 19134 ft 407 kts 118°
2026-04-17 14:03 -1.12934 28.23439 19139 ft 407 kts 118°
2026-04-17 14:03 -1.14311 28.25916 19140 ft 407 kts 118°
2026-04-17 14:03 -1.15688 28.28395 19126 ft 407 kts 118°
2026-04-17 14:04 -1.17059 28.30867 19141 ft 406 kts 118°
2026-04-17 14:04 -1.18432 28.33343 19157 ft 407 kts 118°
2026-04-17 14:04 -1.19805 28.35822 19163 ft 407 kts 118°
2026-04-17 14:04 -1.21178 28.38300 19162 ft 408 kts 118°
2026-04-17 14:05 -1.22556 28.40789 19152 ft 408 kts 118°
2026-04-17 14:05 -1.23933 28.43273 19188 ft 408 kts 118°
2026-04-17 14:05 -1.25297 28.45734 19177 ft 409 kts 118°
2026-04-17 14:05 -1.26677 28.48218 19188 ft 409 kts 118°
2026-04-17 14:06 -1.28060 28.50708 19182 ft 409 kts 118°
2026-04-17 14:06 -1.29439 28.53189 19181 ft 408 kts 118°
2026-04-17 14:06 -1.30823 28.55679 19204 ft 408 kts 118°
2026-04-17 14:06 -1.32201 28.58161 19204 ft 408 kts 118°
2026-04-17 14:07 -1.33581 28.60644 19209 ft 408 kts 118°
2026-04-17 14:07 -1.34959 28.63128 19223 ft 410 kts 118°
2026-04-17 14:07 -1.36353 28.65639 19466 ft 416 kts 118°
2026-04-17 14:07 -1.37757 28.68167 20078 ft 414 kts 118°
2026-04-17 14:08 -1.39151 28.70679 20646 ft 413 kts 118°
2026-04-17 14:08 -1.40550 28.73199 21046 ft 417 kts 118°
2026-04-17 14:08 -1.41944 28.75710 21445 ft 420 kts 118°
2026-04-17 14:08 -1.43382 28.78301 21853 ft 422 kts 118°
2026-04-17 14:09 -1.44797 28.80850 22099 ft 428 kts 118°
2026-04-17 14:09 -1.46265 28.83496 22445 ft 431 kts 118°
2026-04-17 14:09 -1.47720 28.86117 22837 ft 432 kts 118°
2026-04-17 14:09 -1.49163 28.88716 23224 ft 434 kts 118°
2026-04-17 14:10 -1.50628 28.91356 23583 ft 436 kts 118°
2026-04-17 14:10 -1.52102 28.94013 23848 ft 438 kts 118°
2026-04-17 14:10 -1.53585 28.96686 24084 ft 441 kts 118°
2026-04-17 14:10 -1.55079 28.99378 24312 ft 444 kts 118°
2026-04-17 14:11 -1.56559 29.02083 24632 ft 445 kts 117°
2026-04-17 14:11 -1.57992 29.04828 24931 ft 446 kts 116°
2026-04-17 14:11 -1.59410 29.07602 25182 ft 448 kts 116°
2026-04-17 14:11 -1.60826 29.10379 25426 ft 450 kts 116°
2026-04-17 14:12 -1.62260 29.13177 25672 ft 452 kts 116°
2026-04-17 14:12 -1.63699 29.15972 25962 ft 453 kts 117°
2026-04-17 14:12 -1.65150 29.18780 26217 ft 455 kts 117°
2026-04-17 14:13 -1.68014 29.24414 26600 ft 460 kts 113°
2026-04-17 14:13 -1.69107 29.27416 26890 ft 459 kts 107°
2026-04-17 14:13 -1.70046 29.30464 27207 ft 459 kts 107°
2026-04-17 14:13 -1.70976 29.33533 27318 ft 463 kts 107°
2026-04-17 14:14 -1.71933 29.36631 27581 ft 464 kts 107°
2026-04-17 14:14 -1.72904 29.39708 27901 ft 463 kts 107°
2026-04-17 14:14 -1.73872 29.42734 28129 ft 464 kts 107°
2026-04-17 14:14 -1.74864 29.45818 28270 ft 467 kts 107°
2026-04-17 14:15 -1.75860 29.48919 28476 ft 469 kts 107°
2026-04-17 14:15 -1.76856 29.52028 28614 ft 472 kts 107°
2026-04-17 14:15 -1.77859 29.55165 28723 ft 475 kts 108°
2026-04-17 14:15 -1.78866 29.58316 28952 ft 475 kts 107°
2026-04-17 14:16 -1.79870 29.61455 29318 ft 473 kts 107°
2026-04-17 14:16 -1.80873 29.64595 29614 ft 473 kts 108°
2026-04-17 14:16 -1.81875 29.67731 29790 ft 475 kts 108°
2026-04-17 14:16 -1.82880 29.70874 30077 ft 474 kts 108°
2026-04-17 14:17 -1.83882 29.74008 30327 ft 474 kts 108°
2026-04-17 14:17 -1.84885 29.77148 30475 ft 476 kts 108°
2026-04-17 14:17 -1.85891 29.80296 30785 ft 473 kts 108°
2026-04-17 14:17 -1.86888 29.83417 31140 ft 471 kts 107°
2026-04-17 14:18 -1.87888 29.86548 31308 ft 473 kts 108°
2026-04-17 14:18 -1.88888 29.89677 31528 ft 473 kts 108°
2026-04-17 14:18 -1.89888 29.92805 31816 ft 472 kts 108°
2026-04-17 14:18 -1.90875 29.95898 32059 ft 472 kts 108°
2026-04-17 14:19 -1.91876 29.99035 32276 ft 473 kts 108°
2026-04-17 14:19 -1.92871 30.02155 32643 ft 470 kts 108°
2026-04-17 14:19 -1.93864 30.05271 32905 ft 470 kts 108°
2026-04-17 14:19 -1.94858 30.08390 33077 ft 472 kts 108°
2026-04-17 14:20 -1.95854 30.11516 33414 ft 470 kts 108°
2026-04-17 14:20 -1.96836 30.14629 33775 ft 468 kts 106°
2026-04-17 14:20 -1.97581 30.17796 33963 ft 470 kts 101°
2026-04-17 14:20 -1.98143 30.21025 34153 ft 471 kts 99°
2026-04-17 14:21 -1.98663 30.24267 34264 ft 475 kts 99°
2026-04-17 14:21 -1.99199 30.27539 34474 ft 475 kts 99°
2026-04-17 14:21 -1.99759 30.30783 34792 ft 472 kts 100°
2026-04-17 14:21 -2.00336 30.34009 35046 ft 471 kts 100°
2026-04-17 14:22 -2.01481 30.40450 35055 ft 474 kts 100°
2026-04-17 14:22 -2.02593 30.46951 35054 ft 474 kts 99°
2026-04-17 14:23 -2.03701 30.53451 35039 ft 474 kts 100°
2026-04-17 14:23 -2.04812 30.59936 35039 ft 473 kts 100°
2026-04-17 14:24 -2.05738 30.65332 35024 ft 473 kts 100°
2026-04-17 14:24 -2.06851 30.71816 35030 ft 473 kts 100°
2026-04-17 14:25 -2.07963 30.78302 35015 ft 473 kts 99°
2026-04-17 14:25 -2.09075 30.84786 35019 ft 473 kts 100°
2026-04-17 14:26 -2.10180 30.91244 35016 ft 473 kts 99°
2026-04-17 14:26 -2.11261 30.97735 34996 ft 473 kts 99°
2026-04-17 14:27 -2.12331 31.04227 35004 ft 473 kts 99°
2026-04-17 14:27 -2.13404 31.10724 34991 ft 473 kts 99°
2026-04-17 14:28 -2.14480 31.17223 34987 ft 473 kts 99°
2026-04-17 14:28 -2.15557 31.23723 34984 ft 473 kts 99°
2026-04-17 14:29 -2.16624 31.30169 34976 ft 472 kts 99°
2026-04-17 14:29 -2.17705 31.36695 34967 ft 472 kts 99°
2026-04-17 14:30 -2.18769 31.43124 34947 ft 471 kts 99°
2026-04-17 14:30 -2.19838 31.49588 34950 ft 471 kts 99°
2026-04-17 14:31 -2.20908 31.56056 34946 ft 470 kts 99°
2026-04-17 14:31 -2.21973 31.62497 34934 ft 469 kts 99°
2026-04-17 14:32 -2.23028 31.68877 34919 ft 468 kts 99°
2026-04-17 14:32 -2.24087 31.75290 34904 ft 466 kts 99°
2026-04-17 14:33 -2.25145 31.81691 34905 ft 466 kts 99°
2026-04-17 14:33 -2.26200 31.88077 34889 ft 465 kts 99°
2026-04-17 14:34 -2.27254 31.94460 34891 ft 464 kts 99°
2026-04-17 14:34 -2.28305 32.00826 34873 ft 464 kts 99°
2026-04-17 14:35 -2.29356 32.07198 34877 ft 464 kts 99°
2026-04-17 14:35 -2.30403 32.13542 34877 ft 465 kts 99°
2026-04-17 14:36 -2.31459 32.19943 34876 ft 467 kts 99°
2026-04-17 14:36 -2.32518 32.26371 34875 ft 469 kts 99°
2026-04-17 14:37 -2.33581 32.32815 34876 ft 470 kts 99°
2026-04-17 14:37 -2.34647 32.39287 34874 ft 471 kts 99°
2026-04-17 14:38 -2.35708 32.45728 34872 ft 472 kts 99°
2026-04-17 14:38 -2.36776 32.52210 34871 ft 472 kts 99°
2026-04-17 14:39 -2.37844 32.58703 34870 ft 472 kts 99°
2026-04-17 14:39 -2.38903 32.65139 34866 ft 471 kts 99°
2026-04-17 14:40 -2.39968 32.71608 34871 ft 471 kts 100°
2026-04-17 14:40 -2.41214 32.78051 34873 ft 471 kts 102°
2026-04-17 14:41 -2.42526 32.84441 34871 ft 471 kts 102°
2026-04-17 14:41 -2.43850 32.90878 34864 ft 470 kts 106°
2026-04-17 14:42 -2.46460 32.96811 34861 ft 469 kts 124°
2026-04-17 14:42 -2.50155 33.02197 34862 ft 469 kts 125°
2026-04-17 14:43 -2.53886 33.07567 34862 ft 470 kts 125°
2026-04-17 14:43 -2.57554 33.12923 34871 ft 469 kts 125°
2026-04-17 14:44 -2.61221 33.18321 34855 ft 469 kts 124°
2026-04-17 14:44 -2.64879 33.23719 34856 ft 468 kts 125°
2026-04-17 14:45 -2.68530 33.29106 34856 ft 467 kts 124°
2026-04-17 14:45 -2.72180 33.34490 34857 ft 467 kts 124°
2026-04-17 14:46 -2.75822 33.39861 34858 ft 466 kts 125°
2026-04-17 14:46 -2.79462 33.45230 34859 ft 465 kts 125°
2026-04-17 14:47 -2.83095 33.50589 34863 ft 465 kts 124°
2026-04-17 14:47 -2.86730 33.55952 34864 ft 465 kts 124°
2026-04-17 14:48 -2.90357 33.61305 34865 ft 465 kts 124°
2026-04-17 14:48 -2.93965 33.66629 34866 ft 465 kts 124°
2026-04-17 14:49 -2.97595 33.71988 34870 ft 465 kts 124°
2026-04-17 14:49 -3.01245 33.77377 34870 ft 465 kts 124°
2026-04-17 14:50 -3.04848 33.82696 34865 ft 465 kts 124°
2026-04-17 14:50 -3.08478 33.88057 34866 ft 465 kts 124°
2026-04-17 14:51 -3.12105 33.93415 34870 ft 465 kts 124°
2026-04-17 14:51 -3.15738 33.98782 34863 ft 465 kts 124°
2026-04-17 14:52 -3.19373 34.04152 34854 ft 466 kts 124°
2026-04-17 14:52 -3.23013 34.09522 34860 ft 466 kts 124°
2026-04-17 14:53 -3.26658 34.14897 34861 ft 467 kts 124°
2026-04-17 14:53 -3.30280 34.20243 34861 ft 467 kts 124°
2026-04-17 14:54 -3.33934 34.25637 34858 ft 468 kts 125°
2026-04-17 14:54 -3.37588 34.31031 34865 ft 468 kts 125°
2026-04-17 14:55 -3.41247 34.36435 34855 ft 469 kts 125°
2026-04-17 14:55 -3.44911 34.41846 34856 ft 470 kts 125°
2026-04-17 14:56 -3.48576 34.47259 34862 ft 470 kts 125°
2026-04-17 14:56 -3.52244 34.52680 34846 ft 470 kts 125°
2026-04-17 14:57 -3.55915 34.58103 34852 ft 470 kts 125°
2026-04-17 14:57 -3.59563 34.63495 34856 ft 470 kts 125°